Вернуться в каталог

OPS 5268

DMSP 5A F3

АктивенПогодаSSO
NORAD 4953·PAYLOAD·🇺🇸 United States

Запущен Feb 17, 1971 с Vandenberg Space Force Base

Loading…

Ближайшие Пролёты

TLE

Source: Space-Track
1  4953U 71012A   26221.62332936  .00000106  00000-0  45219-4 0  9991
2  4953  98.4745  90.9192 0035998 266.4525  93.2547 14.42197496906488

Отслеживайте OPS 5268 в реальном времени с AllMySat

Download on the App Store